Regional Weather Roundup
Issued by NWS

Home | Current Version | Previous Version | Text Only | Print | Product List | Glossary Off
Versions: 1 2 3 4 5 6 7 8 9 10 11 12 13 14 15 16 17 18 19 20 21 22 23 24 25 26 27

000
ASUS45 KBOU 280107
RWRCO

WEATHER ROUNDUP FOR COLORADO
NATIONAL WEATHER SERVICE DENVER/BOULDER CO
700 PM MDT MON MAR 27 2017

NOTE: "FAIR" INDICATES FEW OR NO CLOUDS BELOW 12000 FEET WITH NO
SIGNIFICANT WEATHER AND/OR OBSTRUCTIONS TO VISIBILITY.

COZ001>005-013-030-031-280200-
...NORTHWEST COLORADO...

CITY           SKY/WX    TMP DP  RH WIND       PRES   REMARKS
CRAIG          CLOUDY    45  35  68 NE5       29.84R
HAYDEN         MOCLDY    43  32  65 NE8       29.85S
MEEKER         FAIR      50  31  48 CALM      29.80F
MOUNT WERNER   NOT AVBL
STEAMBOAT SPGS MOCLDY    40  35  82 CALM      29.85F
WALDEN         NOT AVBL
$$

COZ006>008-011-280200-
...WEST CENTRAL VALLEYS...

CITY           SKY/WX    TMP DP  RH WIND       PRES   REMARKS
GRAND JUNCTION FAIR      59  28  30 SW3       29.71F
MONTROSE       CLOUDY    53  33  46 N13G18    29.79R
EAGLE          MOCLDY    54  23  30 W10       29.80S
RIFLE          CLOUDY    55  30  38 S22G29    29.76R
DELTA          CLOUDY    55  34  45 NE15      29.79R
NUCLA          MOCLDY    50  32  50 E10       29.83S
$$

COZ017>023-064>068-280200-
...SOUTHWEST COLORADO...

CITY           SKY/WX    TMP DP  RH WIND       PRES   REMARKS
DURANGO        CLOUDY    49  29  46 SE13      29.86S
CORTEZ         CLOUDY    53  32  44 S14G22    29.80S
PAGOSA SPRINGS DRIZZLE   41  37  84 SE5       29.94S
TELLURIDE      CLOUDY    40  28  63 S9G22     29.90F
WOLF CREEK PAS SNOW      25  25 100 SW12G17   30.04S VSB<1/4 WCI  14
$$

COZ009-010-012-014-032>034-037-058>063-280200-
...CENTRAL COLORADO...

CITY           SKY/WX    TMP DP  RH WIND       PRES   REMARKS
ASPEN          CLOUDY    47  23  38 N7        29.81R
BUENA VISTA    CLOUDY    49  26  40 SE15G23   29.84R
COPPER MTN     CLOUDY    32  25  74 MISG      29.96S
BERTHOUD PASS  HAZE      23  12  63 S9        29.98R VSB<1/4 WCI  13
COTTONWOOD PAS CLOUDY    43  23  45 SE14G20   29.90S
GUNNISON       FAIR      50  24  36 SE3       29.81F
KREMMLING      FAIR      45  34  65 E5        29.86R
LEADVILLE      MOCLDY    39  17  41 S6        29.87R
MONARCH PASS   MOCLDY    34  21  60 W8        30.08S WCI  27
SALIDA         CLOUDY    51  31  46 SE16G24   29.89S
SUNLIGHT       LGT SNOW  30  27  86 S10G16    29.95S WCI  21
WILKERSON PASS FAIR      32  27  80 S8        29.98R WCI  25
$$

COZ069>075-280200-
...SAN LUIS VALLEY/SANGRE DE CRISTO MOUNTAINS...

CITY           SKY/WX    TMP DP  RH WIND       PRES   REMARKS
ALAMOSA        CLOUDY    49  27  42 S21G31    29.88R
LA VETA PASS   NOT AVBL
SAGUACHE       FAIR      52  23  32 W20       29.83R
$$

COZ035-036-038>040-280200-
...NORTHERN COLORADO FRONT RANGE...

CITY           SKY/WX    TMP DP  RH WIND       PRES   REMARKS
DENVER INTL AP LGT RAIN  51  39  63 S18G30    29.80R
DMNS CITY PARK   N/A     51  40  67 E7        29.79R
AURORA         MOCLDY    50  41  72 CALM      29.79S
FRONT RANGE AP LGT RAIN  55  37  50 SE15G28   29.81R
ERIE MUNI ARPT RAIN      54  37  53 S7G25     29.80R
BOULDER MUN AP CLOUDY    55  34  44 SW8       29.78R
CENTENNIAL     MOCLDY    50  40  68 NW5       29.79F
BROOMFIELD     LGT RAIN  52  36  54 W3        29.81R
FORT COLLINS   LGT RAIN  56  35  45 CALM      29.78R
LONGMONT       CLOUDY    57  36  44 NW9       29.80R
$$

COZ041-046-047-076>085-087-088-280200-
...PIKES PEAK/PALMER DIVIDE AND SOUTHERN FOOTHILLS...

CITY           SKY/WX    TMP DP  RH WIND       PRES   REMARKS
COLO. SPRINGS  MOCLDY    54  31  41 SE8       29.83R
A. F. ACADEMY  NOT AVBL
SCHRIEVER AFB  FAIR      53  32  45 SE10G18   29.84R
ELLICOTT       NOT AVBL
FALCON         FAIR      50  31  48 S14       29.86S
FORT CARSON    CLOUDY    55  35  46 S7        29.82R
LIMON          FAIR      53  36  52 SE14      29.82S
MONUMENT HILL  FAIR      46  32  57 S15       29.85R
TRINIDAD       CLOUDY    59  33  37 SE14      29.78R
$$

COZ042>045-048>051-090-091-280200-
...NORTHEAST COLORADO...

CITY           SKY/WX    TMP DP  RH WIND       PRES   REMARKS
GREELEY ARPT   CLOUDY    60  33  36 SE16G25   29.78R
AKRON          MOCLDY    57  33  40 SE14      29.82S
BURLINGTON     FAIR      54  39  57 SE12      29.85R
WRAY           NOT AVBL
STERLING       FAIR      59  34  38 SE8       29.79S
HOLYOKE        FAIR      61  34  36 SE10      29.83R
FORT MORGAN    FAIR      57  32  37 SE12      29.80S
$$

COZ086-089-092>099-280200-
...SOUTHEAST COLORADO...

CITY           SKY/WX    TMP DP  RH WIND       PRES   REMARKS
PUEBLO         CLOUDY    65  32  29 VRB3      29.76R
LA JUNTA       CLOUDY    65  32  29 SE21      29.73S
LAMAR          FAIR      63  33  32 SE16      29.77S
SPRINGFIELD      N/A     58  32  37 SE15      29.82R
$$




USA.gov is the U.S. government's official web portal to all federal, state and local government web resources and services.